Total_Precipitation_Accumulation
1.54 1.62 1.69 1.79 1.84 1.89 1.92 1.91 1.91 1.92 1.93 1.93 2.03 2.09 2.11 2.14 2.32 2.50 2.41 2.66 2.79 2.83 2.65 2.62 2.59 2.62 2.63 2.48 2.56 2.67 2.74 3.07 3.07 2.43 2.26 2.34 2.44 2.42 2.47 2.34 2.23 2.22 2.04
1.49 1.63 1.70 1.88 1.93 1.87 1.91 2.12 2.12 2.07 2.03 2.02 2.10 2.19 2.16 2.20 2.36 2.36 2.21 2.32 2.52 2.73 2.94 3.06 2.81 2.82 2.85 2.68 2.69 2.68 2.73 2.98 3.03 2.82 2.61 2.56 2.61 2.55 2.56 2.37 2.00 1.90 1.98
1.40 1.56 1.77 1.88 1.94 2.09 2.27 2.43 2.45 2.35 2.30 2.28 2.35 2.28 2.30 2.37 2.36 2.28 2.31 2.34 2.44 2.52 2.76 3.01 2.99 3.14 2.90 2.93 2.87 2.74 2.74 2.76 2.95 2.79 2.59 2.75 2.76 2.71 2.64 2.25 2.06 2.15 1.96
1.58 1.76 1.90 2.11 2.26 2.38 2.35 2.42 2.43 2.43 2.46 2.46 2.50 2.43 2.39 2.43 2.44 2.45 2.46 2.43 2.48 2.45 2.50 2.62 2.73 3.01 2.98 3.03 2.87 2.89 3.03 3.09 3.21 3.05 2.86 2.94 3.06 3.07 2.93 2.54 2.39 2.29 2.16
1.89 2.00 2.04 2.13 2.27 2.47 2.64 2.66 2.62 2.58 2.51 2.68 2.67 2.59 2.60 2.60 2.39 2.54 2.76 2.73 2.79 2.58 2.48 2.44 2.41 2.65 2.72 2.79 2.53 2.72 3.02 3.09 3.16 3.10 2.98 2.99 2.99 3.16 2.90 2.70 2.53 2.51 2.41
2.36 2.49 2.62 2.71 2.79 2.88 2.96 3.00 3.02 2.95 2.88 2.80 2.69 2.75 2.75 2.51 2.64 2.72 2.64 2.69 2.90 2.88 2.74 2.66 2.52 2.46 2.45 2.48 2.51 2.57 2.74 2.76 2.83 2.93 2.84 2.82 2.87 3.02 3.20 3.07 2.87 2.66 2.40
2.53 2.65 2.77 2.88 3.03 3.17 3.20 3.23 3.09 3.02 2.94 2.82 2.81 2.86 2.80 2.83 2.80 2.57 2.44 2.44 2.54 2.64 2.70 2.68 2.38 2.23 2.45 2.36 2.52 2.53 2.34 2.27 2.29 2.44 2.45 2.45 2.89 3.21 3.53 3.21 3.04 2.85 2.55
2.71 2.81 2.87 2.92 3.00 3.19 3.38 3.28 3.12 3.08 3.01 2.97 2.91 2.78 2.71 2.62 2.66 2.42 2.41 2.30 2.25 2.20 2.34 2.46 2.39 2.27 2.32 2.43 2.34 2.10 1.88 1.87 1.93 1.85 1.88 2.14 2.59 3.16 3.47 3.43 3.43 3.17 2.81
2.44 2.64 2.65 2.80 2.98 3.08 3.11 3.12 3.19 3.16 2.95 2.79 2.69 2.66 2.61 2.67 2.90 2.61 2.46 2.24 2.22 2.07 2.07 2.08 2.10 1.97 2.12 2.23 2.12 1.90 1.74 1.68 1.72 1.75 1.74 1.95 2.22 2.57 3.00 3.22 3.11 2.92 2.51
2.38 2.59 2.77 2.92 3.08 3.10 3.13 3.24 3.28 3.24 3.20 3.16 3.03 2.95 2.85 2.80 3.02 2.75 2.54 2.28 2.25 2.18 2.19 2.16 2.20 1.95 1.86 1.82 1.75 1.77 1.59 1.50 1.63 1.62 1.58 1.62 1.75 2.07 2.53 2.62 2.64 2.73 2.44
2.43 2.53 2.67 2.85 3.08 3.34 3.51 3.43 3.41 3.36 3.28 3.11 2.96 2.84 2.79 2.76 2.74 2.54 2.37 2.06 2.00 2.07 1.94 1.82 1.85 1.86 1.64 1.49 1.47 1.43 1.38 1.46 1.56 1.56 1.48 1.47 1.61 1.80 1.98 2.23 2.47 2.51 2.35
2.54 2.64 2.71 2.91 2.99 3.14 3.40 3.41 3.33 3.29 3.21 3.12 3.06 2.99 2.90 2.73 2.48 2.25 2.11 1.94 1.93 1.89 1.90 1.89 1.93 1.94 1.67 1.51 1.35 1.23 1.29 1.32 1.35 1.46 1.41 1.35 1.39 1.52 1.78 2.06 2.34 2.44 2.37
2.50 2.67 2.86 2.98 3.04 3.16 3.33 3.38 3.36 3.26 3.12 2.98 2.85 2.64 2.62 2.65 2.56 2.36 2.08 1.86 1.82 1.71 1.89 2.20 2.23 2.13 1.88 1.58 1.47 1.50 1.46 1.33 1.33 1.36 1.32 1.27 1.34 1.51 1.80 2.14 2.38 2.58 2.55
2.47 2.53 2.69 2.84 2.98 3.15 3.17 3.04 2.92 2.78 2.70 2.65 2.49 2.35 2.38 2.46 2.35 2.28 2.11 1.99 1.96 1.85 1.88 2.15 2.32 2.29 2.14 1.91 1.80 1.72 1.53 1.46 1.52 1.50 1.52 1.56 1.67 1.81 1.96 2.09 2.32 2.49 2.57
2.48 2.55 2.54 2.56 2.66 2.83 2.91 2.86 2.73 2.57 2.43 2.36 2.23 2.22 2.21 2.17 2.22 2.27 2.11 1.98 1.96 2.02 2.09 2.25 2.39 2.49 2.51 2.42 2.29 2.20 2.07 1.92 1.75 1.70 1.76 1.77 1.83 1.93 1.98 2.13 2.36 2.47 2.41
2.56 2.43 2.35 2.28 2.29 2.36 2.40 2.43 2.55 2.43 2.43 2.27 2.13 2.05 1.97 2.00 2.05 2.02 1.93 1.87 1.90 2.04 2.06 2.13 2.37 2.57 2.65 2.72 2.75 2.63 2.40 2.20 2.01 1.98 1.93 1.90 1.94 1.95 2.00 2.15 2.36 2.47 2.33
2.46 2.31 2.21 2.15 2.16 2.13 2.11 2.16 2.30 2.36 2.31 2.20 2.16 1.99 1.84 1.87 1.84 1.83 1.82 1.79 1.82 1.90 1.88 2.00 2.13 2.25 2.44 2.65 2.72 2.68 2.46 2.34 2.34 2.29 2.19 2.15 2.16 2.17 2.17 2.27 2.46 2.58 2.53
2.27 2.34 2.22 2.09 2.13 2.19 2.21 2.19 2.20 2.24 2.22 2.11 2.11 2.06 1.80 1.69 1.68 1.66 1.67 1.59 1.47 1.50 1.58 1.78 1.99 2.14 2.30 2.53 2.68 2.70 2.63 2.55 2.55 2.58 2.53 2.46 2.44 2.37 2.27 2.21 2.36 2.48 2.54
2.12 2.18 2.21 2.21 2.18 2.24 2.29 2.20 2.11 2.09 2.09 1.98 1.89 1.93 1.88 1.71 1.61 1.60 1.59 1.42 1.36 1.40 1.50 1.55 1.64 1.84 2.07 2.30 2.54 2.69 2.69 2.59 2.53 2.58 2.54 2.47 2.45 2.44 2.31 2.21 2.27 2.47 2.54
2.05 2.20 2.13 2.16 2.18 2.16 2.20 2.22 2.20 2.20 2.14 2.04 1.94 1.90 1.87 1.71 1.57 1.67 1.73 1.68 1.60 1.56 1.56 1.57 1.67 1.85 2.03 2.27 2.47 2.57 2.59 2.59 2.54 2.52 2.45 2.37 2.36 2.35 2.20 2.15 2.18 2.27 2.31
1.92 2.00 2.06 1.89 1.92 2.05 2.05 2.09 2.15 2.20 2.18 2.08 1.95 1.93 1.83 1.60 1.65 1.75 1.87 1.91 1.81 1.71 1.67 1.67 1.71 1.79 1.96 2.17 2.33 2.46 2.50 2.53 2.55 2.55 2.50 2.40 2.36 2.36 2.31 2.26 2.24 2.27 2.27
1.96 1.83 1.80 1.83 1.97 2.06 2.12 2.11 2.10 2.08 2.05 2.02 1.96 1.94 1.93 1.67 1.72 1.80 1.84 1.91 1.95 1.93 1.87 1.88 1.87 1.87 1.94 2.09 2.25 2.37 2.40 2.41 2.45 2.51 2.54 2.53 2.51 2.49 2.53 2.53 2.47 2.42 2.41
1.86 1.83 1.78 1.78 1.92 2.09 2.15 2.14 2.13 2.09 2.06 2.05 1.99 1.96 1.94 1.86 1.87 1.95 1.98 2.02 2.03 1.99 1.94 1.92 1.89 1.89 1.92 1.95 2.04 2.19 2.27 2.26 2.24 2.33 2.43 2.41 2.36 2.34 2.38 2.41 2.42 2.43 2.41
1.65 1.77 1.81 1.78 1.83 1.87 1.90 1.91 1.90 1.87 1.89 1.90 1.93 1.99 2.00 2.01 2.05 2.09 2.04 1.97 1.91 1.87 1.86 1.83 1.79 1.76 1.78 1.84 1.87 1.87 1.94 2.02 2.00 2.04 2.15 2.23 2.21 2.18 2.21 2.23 2.31 2.39 2.48
1.49 1.67 1.77 1.76 1.72 1.75 1.73 1.65 1.64 1.70 1.79 1.91 1.95 1.96 1.98 2.00 1.99 1.93 1.84 1.75 1.68 1.71 1.74 1.73 1.70 1.61 1.56 1.57 1.60 1.64 1.81 1.88 1.88 1.87 1.87 1.95 2.01 2.05 2.08 2.12 2.21 2.34 2.48
1.51 1.62 1.67 1.67 1.67 1.71 1.76 1.72 1.65 1.69 1.78 1.82 1.86 1.85 1.85 1.84 1.82 1.77 1.68 1.62 1.59 1.59 1.64 1.68 1.61 1.48 1.45 1.45 1.45 1.50 1.53 1.49 1.59 1.73 1.72 1.75 1.89 1.99 2.01 2.03 2.06 2.18 2.28